Regional Weather Roundup
Issued by NWS

Home | Current Version | Previous Version | Text Only | Print | Product List | Glossary Off
Versions: 1 2 3 4 5 6 7 8 9 10 11 12 13 14 15 16 17 18 19 20 21 22 23 24 25 26 27 28 29 30 31 32 33 34 35 36 37 38 39 40 41 42 43 44 45 46 47 48 49 50

279
ASUS45 KCYS 090110
RWRWY

WYOMING REGIONAL WEATHER ROUNDUP
NATIONAL WEATHER SERVICE CHEYENNE WY
600 PM MST MON FEB 08 2016

NOTE:  "FAIR" INDICATES FEW OR NO CLOUDS BELOW 12,000 FEET
WITH NO SIGNIFICANT WEATHER AND/OR OBSTRUCTIONS TO VISIBILITY.

WYZ001-090200-
YELLOWSTONE NATIONAL PARK

CITY           SKY/WX    TMP DP  RH WIND       PRES   REMARKS
LK YELLOWSTONE   N/A     26  20  77 CALM      30.56R
W YELLOWSTONE  NOT AVBL

$$
WYZ002>013-054>058-071-098>099-090200-
NORTHERN WYOMING

CITY           SKY/WX    TMP DP  RH WIND       PRES   REMARKS
JACKSON        CLEAR     21  18  86 CALM      30.56
CODY           FAIR      39  19  45 NE10      30.37R WCI  32
GREYBULL       FAIR      40  21  46 CALM      30.38S
WORLAND        FAIR      35  21  56 CALM      30.38S
SHERIDAN       PTCLDY    45  27  49 NW7       30.28F
BUFFALO        FAIR      43  28  55 NW5       30.32S
GILLETTE       FAIR      33  27  78 W8        30.29S WCI  26
HULETT         MOCLDY    37  25  60 CALM      30.29R
NEWCASTLE      FAIR      36  21  55 NW14      30.27S WCI  27

$$
WYZ014>020-022>026-101>103-090200-
CENTRAL WYOMING

CITY           SKY/WX    TMP DP  RH WIND       PRES   REMARKS
BIG PINEY      FAIR      32  24  72 N15       30.49F WCI  22
PINEDALE       FAIR      32  25  74 W21       30.48S WCI  20
DUBOIS         FAIR      36  21  55 W35G43    30.42F WCI  22
LANDER         FAIR      26  18  71 S5        30.40F WCI  20
RIVERTON       FAIR      28  18  66 W8        30.41F WCI  20
CASPER         FAIR      33  22  63 SW14      30.37F WCI  23
DOUGLAS        FAIR      37  26  64 NW12        N/A  WCI  29

$$
WYZ021-027>030-104>119-090200-
SOUTHERN WYOMING

CITY           SKY/WX    TMP DP  RH WIND       PRES   REMARKS
EVANSTON       FAIR      30  17  58 NE3       30.58S
KEMMERER       FAIR      32  27  80 W18       30.53F WCI  20
FORT BRIDGER   CLEAR     34  25  69 W20G25    30.59R WCI  22
ROCK SPRINGS   FAIR      33  24  69 SW20      30.48S WCI  21
DIXON          FAIR      19  12  76 E3        30.54S
RAWLINS        FAIR      30  19  63 SW12      30.46S WCI  20
SARATOGA       FAIR      28  21  74 SW5       30.47R WCI  23
LARAMIE        FAIR      31  22  69 NW13      30.37R WCI  21
CHEYENNE       FAIR      37  23  56 NW20G35   30.32R WCI  27
TORRINGTON     FAIR      42  26  53 NW14      30.31R
PINE BLUFFS    FAIR      36  28  75 NW16G23   30.30S WCI  26

$$




USA.gov is the U.S. government's official web portal to all federal, state and local government web resources and services.